Voltar ao catálogo

DELTA 4 R/B

AtivoMEO
NORAD 41585·ROCKET BODY·🇺🇸 United States

Lançado Jun 11, 2016 de Cape Canaveral Space Force Station

Loading…

Próximas Passagens (próximas 24 horas)

TLE

AtualizadoSource: Space-Track

Época: Sep 14, 2026, 01:33 UTC

1 41585U 16036B   26257.06521173 -.00000097  00000-0  00000-0 0  9993
2 41585   5.5761 359.1841 0230467 254.6558 102.8281  1.04079132 26655

Acompanhe DELTA 4 R/B em tempo real com AllMySat

Download on the App Store